Погода Баку

Погода Баку : погода сейчас, прогноз погоды и архив. Всё, что Вы хотите узнать о погоде Баку!

Поиск расширенной информации на нашем сайте:

Другие новости

Новости СМИ2

Главная страница сайта

Новости сайта

02.10.2013

Напоминаем, что на нашем новом сайте вы можете получить высокодетализированные прогнозы погоды по пунктам России, СНГ и мира (включающие важные для авиации метеовеличины, такие как направление и скорость ветра, видимость, явления погоды, количество и форма облачности, нижняя и верхняя граница облачности), а также ознакомиться с разнообразными материалами по авиационной метеорологии и подборкой полезных ссылок на эту тему.

Сайт Метеоцентр.Азия посвящён разработке технологий оптимизации авиаметеорологического обслуживания, включая проектирование и перспективное создание нескольких автоматизированных авиаметеорологических систем:
- система выпуска высокодетальных прогностических карт явлений погоды для нижнего воздушного пространства по России и ближнему зарубежью;
- система верификации прогнозов TAF (выпускаемых синоптиками официальных АМСГ РФ и ближнего зарубежья) и AUTOTAF (выпускаемых сайтом Метеоцентр.Азия) - выявление ошибок, онлайн-сопоставление с фактической погодой METAR, автоматическое внесение коррективов в прогнозы при резком отклонении фактической погоды от прогноза, подсчёт оправдываемости прогнозов по элементам и в целом;
- система обработки, анализа и отображения авиаметеорологической информации для применения провайдерами метеорологической информации.

Рекомендуем: Цена разработка сайта прайс лист на сайты.

Погода Баку - сегодня

Время (UTC), дата Ветер
(°,м/с) 
Видим.   Явления Облачность Т
(°С)
Тd
(°С)
f(%) Тe
(°С)
Pmin
(гПа)
dP
(гПа)
Po
(мм)
O2
(г/м3)
Тmin Tmax R s Состояние
почвы
12 25.02.17 160 (Ю) 10 км    ясно 
+14.8 +4.3 49 +14  1017.7  -1.8  763  290           
15 25.02.17 150 (ЮВ) 10 км    ясно 
+10.2 +8.7 90 +8  1017  -0.7  763  294           
18 25.02.17 160 (Ю) 10 км    ясно 
+6.9 +5.1 88 +5  1016.7  -0.3  763  298    +18.3       
21 25.02.17 160 (Ю) 10 км    ясно 
+7.5 +3.9 78 +5  1014.6  -2.1  761  297           
00 26.02.17 160 (Ю) 10 км    ясно 
+9.6 +0.8 54 +8  1011.6  -3  759  295           
03 26.02.17 160 (Ю) 10  10 км    ясно 
+9.5 -0.2 51 +7  1009.1  -2.5  757  294           
06 26.02.17 270 (З) 10 км    ясно 
+11.9 +3 54 +10  1014  4.9  761  293           
09 26.02.17 270 (З) 16-22{22}  10 км    ясно 
+10.2 +4.6 68 +7  1017.5  3.5  763  295           
12 26.02.17 280 (З) 12-19{22}  10 км    8/0 средняя 
[Ac trans]
+7.3 +0.9 64 +4  1021.2  3.7  766  300           
15 26.02.17 290 (З) 13-19{19}  10 км    10/10 1000 м 
[Sc]
+5.6 -1.1 62 +1  1024.5  3.3  768  303           
18 26.02.17 340 (С) 10  10 км    4/0 средняя 
[Ac As]
+4.2 -1.9 64 1027.5  771  305    +12.2       
21 26.02.17 300 (СЗ) 10 км    8/0 средняя 
[Ac As]
+4.9 -2.9 57 +2  1029.1  772  305           
00 27.02.17 320 (СЗ) 10 км    8/0 средняя 
[Ac As]
+4.7 -2.3 60 +4  1029.4  0.6  772  305           
03 27.02.17 тихо ()   10 км    8/0 средняя 
[Ac As]
+4 -1.5 67 +4  1030.3  0.9  773  306           
06 27.02.17 090 (В) 10 км    10/0 средняя 
[Ac As]
+5.4 -0.7 65 +5  1030.3  773  305           
09 27.02.17 100 (В) 10 км    10/10 1000 м 
[Sc]
+8.4 -1.2 51 +7  1028.5  -1.8  771  301           
12 27.02.17 100 (В) 10 км    10/10 1000 м 
[Sc]
+6.8 -1.6 55 +4  1025.4  -3.1  769  302           
15 27.02.17 120 (ЮВ) 10 км    10/10 1000 м 
[Sc]
+6.5 +0.7 66 +6  1024  -1.4  768  301           
18 27.02.17 160 (Ю) 10 км    6/6 600 м 
[Sc]
+7 +2.5 73 +4  1022.7  -1.3  767  300    +8.4       
21 27.02.17 160 (Ю) 10 км    10/10 600 м 
[Sc]
+6.8 +3.5 79 +5  1021.9  -0.8  767  300           
00 28.02.17 140 (ЮВ) 10 км    6/6 600 м 
[Sc]
+6.2 +4.1 86 +5  1021.7  -0.2  766  300           
03 28.02.17 270 (З) 10 км    6/6 600 м 
[Sc]
+2.9 +1.3 89 +2  1023.1  1.4  767  305           
06 28.02.17 280 (З) 10 км    6/6 600 м 
[Sc]
+7.2 +1.9 69 +6  1025.6  2.5  769  301           
09 28.02.17 280 (З) 10 км    4/0 средняя 
[Ac As]
+8.6 +3.2 69 +6  1025.9  0.3  770  300           
12 28.02.17 300 (СЗ) 10 км    4/0 средняя 
[Ac As]
+9.9 +3.8 66 +9  1025.1  -0.8  769  298           
Время (UTC), дата Ветер
(°,м/с) 
Видим.   Явления Облачность Т
(°С)
Тd
(°С)
f(%) Тe
(°С)
Pmin
(гПа)
dP
(гПа)
Po
(мм)
O2
(г/м3)
Тmin Tmax R s Состояние
почвы

Для получения пояснительной информации подведите курсор к названию столбца.

ПОГОДА Баку - архив

Всё, что Вы хотите узнать о погоде Баку - удобно и подробно!

Выберите нужную дату (начиная с 1 января 2015* года) и нажмите кнопку "Найти".
Будут отображены архивные сводки погоды по пункту Баку, начиная с указанной даты.


Отображать данные в формате CSV (для использования в таблицах Excel)


Внимание! Наш архив погоды предназначен исключительно для личного некоммерческого использования в познавательных целях. Если Вам необходимы официальные справки о состоянии погоды (для производственных, юридических, коммерческих и т.п. целей), обращайтесь в органы Росгидромета.

*Примечание: данная дата относится к архиву по метеостанциям СССР (Россия, СНГ, Балтия).
Архив по метеостанциям Зарубежной Европы и Азии (кроме Китая) хранится 10 дней, по другим регионам земного шара (Китай, Африка, Америка, Австралия, Океания) - 1 день.

Баку - район местоположения метеостанции


Название, широта, долгота, высота метеостанции:
Баку (Гейдар Алиев) 40.4°ш. 50.1°д. -1 м над ур. моря [Азербайджан]

Дополнительная информация

В oтличие oт бoльшинства пoгoдных сайтoв мы публикуем пoдрoбную метеoинфoрмацию в детальнoм прoфессиoнальнoм фoрмате.

Характеристики температуры и влажнoсти вoздуха измеряются на высoте 2 м в тени вдали oт зданий и деревьев.
Скoрoсть ветра измеряется на высoте 10 м (на урoвне рoста челoвека скoрoсть ветра ниже в 1.5-2 раза). Если метеoстанция нахoдится в гoрoде или в лесу, тo скoрoсть ветра занижена на 2-4 м/с пo сравнению с oткрытым местoм. Скoрoсть ветра над акватoриями крупных рек и oзёр, а также на вершинах хoлмoв на 2-5 м/с выше, чем в oбычных услoвиях.
Атмoсфернoе давление в разных тoчках местнoсти мoжет значительнo oтличаться oт давления на метеoстанции, в зависимoсти oт услoвий рельефа (при пoдъёме на 10 м давление пoнижается примернo на 1 мм рт.ст.).